Regional Weather Roundup
Issued by NWS

Current Version | Previous Version | Text Only | Print | Product List | Glossary On
Versions: 1 2 3 4 5 6 7 8 9 10 11 12 13 14 15 16 17 18 19 20 21 22 23 24 25 26 27
000
ASUS46 KSEW 041010
RWRWA

WASHINGTON REGIONAL WEATHER ROUNDUP
NATIONAL WEATHER SERVICE SEATTLE WA
200 AM PST SUN DEC 04 2016

NOTE:"FAIR" INDICATES FEW OR NO CLOUDS BELOW 12,000 FEET WITH NO
SIGNIFICANT WEATHER AND/OR OBSTRUCTIONS TO VISIBILITY.

WAZ507-509-555>559-041100-
SEATTLE, TACOMA, EVERETT, AND VICINITY

CITY           SKY/WX    TMP DP  RH WIND       PRES   REMARKS
EVERETT        LGT RAIN  41  40  96 CALM      30.00F
BOEING FIELD   CLOUDY    45  42  89 W3        30.01F
RENTON         CLOUDY    46  41  82 S7        30.01F
SEATAC AIRPORT CLOUDY    44  41  89 SW20      30.00F
JBLM-MCCHORD   LGT RAIN  43  42  99 SW14      30.03F
PUYALLUP       LGT RAIN  43  43 100 SW7G15    30.04F
BREMERTON      CLOUDY    41  39  93 S6        30.02F
JBLM-FT LEWIS  CLOUDY    43  42  99 S9        30.04F
TACOMA NARROWS CLOUDY    42  41  96 SW12      30.02F
$$

WAZ001-503-506-510-514-515-041100-
NORTH INTERIOR

CITY           SKY/WX    TMP DP  RH WIND       PRES   REMARKS
BELLINGHAM     CLOUDY    43  39  86 VRB3      29.98F
FRIDAY HARBOR  CLOUDY    43  39  86 W5        30.00F
EASTSOUND      CLOUDY    43  39  87 SW3       29.98S
PORT ANGELES   LGT RAIN  41  38  89 W14G23    30.03F
EDIZ HOOK      DRIZZLE   43  39  86 W21       30.03F
PORT TOWNSEND    N/A     43  41  93 MISG        N/A
NAS WHIDBEY    CLOUDY    46  37  71 W22G32    30.03F
ARLINGTON      CLOUDY    43  34  70 W5        30.03F
BURLINGTON     MOCLDY    43  39  87 SW3       29.99F
$$

WAZ020-022-039-040-504-511-512-041100-
SOUTHWEST INTERIOR

CITY           SKY/WX    TMP DP  RH WIND       PRES   REMARKS
SHELTON        LGT RAIN  43  40  89 SW13      30.01F
OLYMPIA        LGT RAIN  42  41  96 SW8       30.05F
CHEHALIS       NOT AVBL
KELSO          RAIN      46  45  96 S7        30.09F
VANCOUVER      LGT RAIN  47  43  86 S7        30.11F
SCAPPOOSE, OR  LGT RAIN  46  44  93 S5        30.10F
PORTLAND, OR   LGT RAIN  47  44  90 S13       30.12F
$$

WAZ021-516-517-041100-
WASHINGTON COAST

CITY           SKY/WX    TMP DP  RH WIND       PRES   REMARKS
FORKS          LGT RAIN  40  38  93 W7        30.06F
HOQUIAM        LGT RAIN  45  43  93 W9        30.08F
ASTORIA, OR    LGT RAIN  48  43  82 W8        30.10F
$$

WAZ019-023-024-040-567>569-041100-
CASCADE MOUNTAINS AND COLUMBIA GORGE

CITY           SKY/WX    TMP DP  RH WIND       PRES   REMARKS
STAMPEDE PASS  HVY SNOW  29  29 100 VRB6      29.86F VSB 1/4
TROUTDALE, OR  LGT RAIN  48  44  86 SW8       30.12F
THE DALLES, OR LGT RAIN  48  39  71 NW16G28   30.04F
$$

WAZ026-027-041>044-520-521-041100-
EAST SLOPES

CITY           SKY/WX    TMP DP  RH WIND       PRES   REMARKS
OMAK           CLOUDY    30  28  92 N7        29.84F
WENATCHEE      CLOUDY    43  32  65 NW8       29.89F
ELLENSBURG     CLOUDY    37  34  89 W6        29.92F
YAKIMA         CLOUDY    34  29  82 CALM      29.95F
$$

WAZ028-034-035-041100-
COLUMBIA BASIN

CITY           SKY/WX    TMP DP  RH WIND       PRES   REMARKS
EPHRATA        CLOUDY    39  29  67 SW13      29.89F
MOSES LAKE     CLOUDY    40  31  70 S12       29.91F
PASCO          CLOUDY    48  35  60 SW14G24   30.01F
HERMISTON, OR  CLOUDY    46  32  58 SW7       30.03F
$$

WAZ036>038-041100-
NORTHEAST WASHINGTON

CITY           SKY/WX    TMP DP  RH WIND       PRES   REMARKS
SPOKANE GEIGER CLOUDY    37  33  85 SW23G32   29.85F
SPOKANE FELTS  CLOUDY    40  34  79 SW17G24   29.89F
FAIRCHILD AFB  CLOUDY    36  36  99 SW24G32   29.84F
COEURDALENE,ID CLOUDY    38  32  79 N5        29.88F
DEER PARK      CLOUDY    37  32  82 S9        29.87F
$$

WAZ029>033-041100-
SOUTHEAST WASHINGTON

CITY           SKY/WX    TMP DP  RH WIND       PRES   REMARKS
PULLMAN        CLOUDY    38  32  79 SW21G28   29.97F
LEWISTON, ID   CLOUDY    44  32  62 S9        29.99F
WALLA WALLA    CLOUDY    45  33  63 S17       30.01F
PENDLETON, OR  CLOUDY    42  29  59 S6        30.02F
$$




USA.gov is the U.S. government's official web portal to all federal, state and local government web resources and services.